AirNav   Duncan Aviation - Near you to keep you flying
 
 1139 users online  

18MN Hines Farm Airport
Motley, Minnesota, USA

GOING TO MOTLEY?


FAA INFORMATION EFFECTIVE 01 DECEMBER 2022

Location

FAA Identifier: 18MN
Lat/Long: 46-14-13.8760N 094-35-35.0470W
46-14.231267N 094-35.584117W
46.2371878,-94.5930686
(estimated)
Elevation: 1283 ft. / 391 m (estimated)
Variation: 04E (1985)
From city: 6 miles SE of MOTLEY, MN
Time zone: UTC -6 (UTC -5 during Daylight Saving Time)
Zip code: 56443

Airport Operations

Airport use: Private use, PERSONAL USE.
Activation date: 11/1978
Control tower: no
ARTCC: MINNEAPOLIS CENTER
FSS: PRINCETON FLIGHT SERVICE STATION
Attendance: UNATNDD
Wind indicator: yes
Segmented circle: no

Airport Communications

WX AWOS-3 at SAZ (12 nm NW): 118.325 (218-894-3666)
WX AWOS-3 at RYM (13 nm SE): 121.575

Nearby radio navigation aids

VOR radial/distance  VOR name  Freq  Var
AXNr051/31.4ALEXANDRIA VOR/DME115.9507E

 
NDB name  Hdg/Dist  Freq  Var  ID
RIPLEY309/14.140403EXCR -..- -.-. .-.

Airport Services

Runway Information

Runway E/W

Dimensions: 2600 x 50 ft. / 792 x 15 m
Surface: turf
RUNWAY E  RUNWAY W
Traffic pattern: leftleft
Obstructions: none25 ft. trees, 50 ft. from runway

Airport Ownership and Management from official FAA records

Ownership: Privately-owned
Owner: DETMER C. HINES
3218 330TH STREET
MOTLEY, MN 56466
Phone 218-575-2610
Manager: DETMER C. HINES
3218 330TH STREET
MOTLEY, MN 56466
Phone 218-575-2610

Airport Operational Statistics

Aircraft based on the field: 1
Single engine airplanes: 1
    

Additional Remarks

OWNER DESIRES ARPT NOT TO BE CHARTED.
FOR CD CTC MINNEAPOLIS ARTCC AT 651-463-5588.

Instrument Procedures

There are no published instrument procedures at 18MN.

Some nearby airports with instrument procedures:

KSAZ - Staples Municipal Airport (12 nm NW)
KRYM - Ray S Miller Army Airfield (13 nm SE)
KLXL - Little Falls/Morrison County Airport-Lindbergh Field (20 nm SE)
KBRD - Brainerd Lakes Regional Airport (22 nm NE)
14Y - Todd Field Airport (23 nm SW)
 
Loc | Ops | Rwys | IFR | FBO | Links
Com | Nav | Svcs | Stats | Notes
Area around 18MN (Hines Farm Airport)
 
Road maps at: MapQuest Bing Google
 
Aerial photo
No photo
 
Sectional chart

 
Airport distance calculator
Flying to Hines Farm Airport? Find the distance to fly.

From to 18MN

Sunrise and sunset
Times for 03-Dec-2022
 Local
(UTC-6)
 Zulu
(UTC)
Morning civil twilight07:1013:10
Sunrise07:4413:44
Sunset16:3222:32
Evening civil twilight17:0723:07

Current date and time
Zulu (UTC)  04-Dec-2022 01:26:54
Local (UTC-6)  03-Dec-2022 19:26:54
 
METAR
KSAZ 
12nm NW 
040115Z 00000KT 10SM M15/M18 A3018 RMK AO2
KRYM 
13nm SE 
040055Z AUTO 00000KT 10SM CLR M14/M18 A3020 RMK AO2 SLP261 T11451185 $
KLXL 
20nm SE 
040115Z AUTO 12003KT 10SM M15/M17 RMK AO2
KBRD 
21nm NE 
040053Z AUTO 17003KT 10SM CLR M15/M19 A3021 RMK AO2 SLP263 T11501189
TAF
KBRD 
21nm NE 
031735Z 0318/0418 24012G16KT P6SM FEW210 FM032300 22008KT P6SM SCT190 FM040900 25007KT P6SM FEW250 WS020/29030KT FM041500 26007G16KT P6SM SKC
NOTAMs
Click for the latest NOTAMs
NOTAMs are issued by the DoD/FAA and will open in a separate window not controlled by AirNav.

 

 
 

Would you like to see your business listed on this page?

 If your business provides an interesting product or service to pilots, flight crews, aircraft, or users of the Hines Farm Airport, you should consider listing it here.  To start the listing process, click on the button below
 
Add a business
 

Other Pages about Hines Farm Airport

Update a link
 
Copyright © AirNav, LLC. All rights reserved. Privacy Policy  Contact